YO3IEZ-WX Weather Reports


time (UTC)temp
F
wind
direction
speed
knots
gust
knots
rain 1hr
in
rain 24hr
in
rain mn
in
humidity
%
barometer
mb
20260506134546 77 128 4.3 7.8 0.00 0.00 0.00 41 1003.6
20260506133102 78 144 3.5 8.7 0.00 0.00 0.00 40 1003.7
20260506131547 77 161 4.3 10.4 0.00 0.00 0.00 41 1003.7
20260506130134 78 136 1.7 9.6 0.00 0.00 0.00 41 1003.8
20260506124552 78 208 2.6 7.0 0.00 0.00 0.00 41 1003.9
20260506123052 79 133 2.6 7.0 0.00 0.00 0.00 40 1004.0
20260506121555 79 192 1.7 6.1 0.00 0.00 0.00 39 1004.1
20260506120055 77 211 3.5 7.8 0.00 0.00 0.00 40 1004.3
20260506114547 76 159 4.3 8.7 0.00 0.00 0.00 42 1004.4
20260506113050 76 169 1.7 10.4 0.00 0.00 0.00 42 1004.3
20260506111547 77 205 1.7 8.7 0.00 0.00 0.00 41 1004.4
20260506110050 75 83 3.5 10.4 0.00 0.00 0.00 43 1004.4
20260506104554 75 139 3.5 8.7 0.00 0.00 0.00 45 1004.5
20260506103044 74 138 5.2 10.4 0.00 0.00 0.00 45 1004.5
20260506101550 74 119 4.3 9.6 0.00 0.00 0.00 44 1004.7
20260506100103 73 179 5.2 10.4 0.00 0.00 0.00 45 1004.7
20260506094605 74 191 5.2 10.4 0.00 0.00 0.00 44 1004.9
20260506093047 74 163 4.3 8.7 0.00 0.00 0.00 43 1004.9
20260506091546 75 236 3.5 7.8 0.00 0.00 0.00 40 1004.9
20260506090044 73 209 3.5 8.7 0.00 0.00 0.00 43 1005.0
20260506084553 72 189 3.5 8.7 0.00 0.00 0.00 42 1005.1
20260506083055 71 138 3.5 8.7 0.00 0.00 0.00 46 1005.0
20260506081601 71 137 3.5 8.7 0.00 0.00 0.00 46 1005.0
20260506073046 69 180 1.7 5.2 0.00 0.00 0.00 49 1005.0
20260506071550 67 178 1.7 7.0 0.00 0.00 0.00 52 1005.1
20260506061547 63 108 1.7 5.2 0.00 0.00 0.00 58 1005.1
20260506044551 56 0 0.0 1.7 0.00 0.00 0.00 70 1005.0
20260506043044 55 115 0.0 3.5 0.00 0.00 0.00 70 1004.8
20260506041549 54 117 0.9 3.5 0.00 0.00 0.00 71 1004.6
20260506040051 53 119 0.9 2.6 0.00 0.00 0.00 73 1004.5
20260506034607 52 119 0.0 2.6 0.00 0.00 0.00 76 1004.5
20260506033046 52 119 0.0 1.7 0.00 0.00 0.00 75 1004.4
20260506031552 52 0 0.0 0.9 0.00 0.00 0.00 75 1004.4
20260506030050 52 119 0.0 1.7 0.00 0.00 0.00 74 1004.3
20260506024553 52 119 0.9 3.5 0.00 0.00 0.00 74 1004.0
20260506023056 52 119 1.7 3.5 0.00 0.00 0.00 74 1003.9
20260506021547 53 117 1.7 4.3 0.00 0.00 0.00 74 1003.9
20260506020051 53 150 1.7 4.3 0.00 0.00 0.00 75 1004.0
20260506014551 53 151 0.9 3.5 0.00 0.00 0.00 76 1004.1
20260506013106 52 151 0.9 2.6 0.00 0.00 0.00 78 1004.0
20260506011547 53 0 0.0 2.6 0.00 0.00 0.00 78 1004.0
20260506010119 53 0 0.9 4.3 0.00 0.00 0.00 77 1003.9
20260506004549 54 151 0.9 2.6 0.00 0.00 0.00 77 1003.9
20260506003045 55 0 0.0 2.6 0.00 0.00 0.00 74 1003.8
20260506001600 56 136 0.0 3.5 0.00 0.00 0.00 70 1003.7
20260506000053 57 129 0.9 4.3 0.00 0.00 0.00 69 1003.7
20260505234549 57 175 2.6 3.5 0.00 0.00 0.00 69 1003.7
20260505233057 57 177 0.9 3.5 0.00 0.00 0.00 69 1003.6
20260505231551 58 177 0.9 4.3 0.00 0.00 0.00 67 1003.7
20260505230054 60 207 0.9 3.5 0.00 0.00 0.00 63 1003.8
20260505224547 61 0 0.0 0.0 0.00 0.00 0.00 59 1003.7
20260505223049 61 213 0.0 1.7 0.00 0.00 0.00 57 1003.8
20260505221548 62 0 0.0 4.3 0.00 0.00 0.00 56 1003.9
20260505220048 62 217 0.9 3.5 0.00 0.00 0.00 57 1003.9
20260505214550 62 0 0.0 1.7 0.00 0.00 0.00 57 1003.8
20260505213043 62 0 0.0 2.6 0.00 0.00 0.00 56 1003.8
20260505211548 62 0 0.0 3.5 0.00 0.00 0.00 57 1003.8
20260505210047 62 0 0.0 2.6 0.00 0.00 0.00 59 1003.9
20260505204546 62 0 0.0 0.0 0.00 0.00 0.00 59 1003.8
20260505203047 63 0 0.0 1.7 0.00 0.00 0.00 58 1003.9
20260505201551 63 0 0.0 2.6 0.00 0.00 0.00 58 1003.8
20260505200049 64 219 0.9 2.6 0.00 0.00 0.00 57 1003.7
20260505194547 65 0 0.0 0.9 0.00 0.00 0.00 55 1003.7
20260505193053 65 0 0.0 0.0 0.00 0.00 0.00 54 1003.6
20260505191600 66 0 0.0 3.5 0.00 0.00 0.00 53 1003.5
20260505190058 66 220 0.9 3.5 0.00 0.00 0.00 54 1003.6
20260505184546 66 220 0.0 2.6 0.00 0.00 0.00 55 1003.6
20260505183113 67 0 0.9 3.5 0.00 0.00 0.00 55 1003.5
20260505181555 67 222 0.9 3.5 0.00 0.00 0.00 53 1003.4
20260505180051 68 0 0.0 3.5 0.00 0.00 0.00 54 1003.3
20260505174548 68 0 0.0 2.6 0.00 0.00 0.00 56 1003.2
20260505173051 69 0 0.9 2.6 0.00 0.00 0.00 56 1003.2
20260505171553 69 0 0.0 2.6 0.00 0.00 0.00 55 1003.2
20260505170052 70 0 0.0 1.7 0.00 0.00 0.00 53 1003.1
20260505164547 71 0 0.0 3.5 0.00 0.00 0.00 51 1003.1
20260505163052 72 229 0.0 4.3 0.00 0.00 0.00 50 1003.0
20260505161605 72 228 0.9 5.2 0.00 0.00 0.00 50 1003.0
20260505153051 74 220 0.9 4.3 0.00 0.00 0.00 47 1003.2
20260505151611 75 213 0.0 3.5 0.00 0.00 0.00 45 1003.4